CAPE
0 0 0 0 0 0 0 0 0 0 0 0 0 0 46 48 73 105 116 288 600 663 788 1113 990 839 768 1815 3435 4380 3786 5112 3479 2400 2312 2781 2614 2630 2140 1556 1284 697 2463 1970
0 0 0 0 0 0 0 0 0 0 0 0 0 19 42 94 283 290 520 884 1574 1741 2011 1755 1319 444 706 1707 2420 3770 4423 5371 4862 3443 3440 3114 2812 1860 993 246 495 746 1267 867
0 0 0 0 0 0 0 0 0 0 0 0 0 52 186 109 353 577 881 1053 1590 1827 2419 2739 2586 1950 811 1427 2311 2602 4667 5087 5102 4917 4277 3394 2903 2405 994 549 433 1685 2270 2381
0 0 0 0 0 0 1 0 0 0 0 26 1 0 175 216 314 640 866 930 1172 1685 1956 2376 3006 3044 2178 1872 1789 2130 2593 3541 4221 5067 4594 5137 3244 2888 2165 1857 2803 3305 3092 2953
0 0 0 0 0 0 0 0 0 0 0 4 0 85 122 110 188 641 807 858 928 1219 1681 1913 2220 3080 3351 2671 1994 2314 2600 3492 4011 4663 4309 3980 3818 3324 3156 2992 4325 4427 3971 3247
0 0 0 0 0 0 0 0 0 0 5 146 0 30 320 160 113 538 686 801 876 1048 1391 1756 1961 2220 3037 3562 3333 3019 2906 2846 3228 3201 3293 3826 4507 4195 3141 3083 2874 3075 3118 3045
0 0 0 0 0 0 0 1 122 129 130 151 0 0 314 96 179 383 564 652 692 960 1343 1592 2020 2077 2589 3551 4060 3928 4064 3639 3425 3235 3161 3327 3564 3721 3725 3498 2209 2301 1873 1996
0 0 0 0 0 0 0 0 85 67 194 135 0 74 131 90 182 220 408 591 675 792 955 1215 1396 2056 2627 3469 3132 3802 3961 3989 3832 3826 3816 3864 3088 2161 1711 1855 1651 1063 1443 1488
0 0 0 0 0 0 5 85 0 2 34 120 93 50 22 100 179 188 250 400 612 614 764 896 955 1344 2122 2539 2531 2777 3148 3240 3090 2232 2139 2524 1863 1499 1401 1258 1270 1467 884 566
0 0 0 0 0 0 0 0 0 129 113 96 99 84 416 465 159 39 88 328 357 132 21 297 718 807 965 1354 1700 1981 2228 2370 2355 2392 2157 2132 1501 1091 1229 1320 880 347 398 461
0 14 13 0 9 0 0 12 15 0 0 76 30 171 380 171 18 27 22 49 11 0 0 0 0 80 280 421 617 1209 1378 1955 1965 1620 1973 1651 1355 1011 1277 1015 427 124 122 222
0 1 2 0 0 0 0 0 0 0 0 1 0 0 90 9 0 0 0 0 0 0 0 0 0 0 0 8 254 523 877 1143 1579 1319 1885 1599 1425 1286 1104 753 326 200 13 13
0 16 12 0 9 1 1 0 0 0 0 0 10 52 45 40 13 3 0 0 7 2 0 1 0 0 0 0 0 0 500 1031 1466 1526 1871 1806 1543 1825 966 541 211 53 35 15
0 0 0 0 0 0 0 0 0 0 2 9 13 30 53 33 61 46 18 3 14 27 32 1 0 0 0 0 0 0 9 479 1385 1682 1724 2003 1664 1607 916 567 306 124 25 2
0 0 0 0 0 0 0 0 0 0 0 0 0 0 19 53 8 12 41 43 48 45 25 5 0 0 0 0 0 0 0 198 1051 1048 1727 1787 1592 1367 938 692 292 111 43 20
0 0 0 0 0 0 0 0 0 0 0 0 14 81 69 58 15 47 111 92 71 57 29 23 15 9 5 0 0 8 29 104 626 504 891 1011 1374 1145 851 696 578 499 119 26
0 0 0 0 0 0 1 0 0 0 0 14 27 14 59 75 56 62 91 112 51 37 31 19 13 6 1 0 0 72 143 211 335 616 460 569 1036 1146 983 575 625 440 275 158
0 0 0 0 0 5 1 0 0 0 4 9 24 28 25 31 26 19 43 15 23 15 7 5 1 5 7 8 46 107 155 71 182 196 135 464 692 1062 868 784 580 208 46 100
0 0 0 0 2 0 11 0 0 0 0 8 8 18 29 30 28 55 29 9 10 1 0 0 0 7 37 51 16 27 50 108 55 50 131 248 554 1086 933 914 292 144 24 2
0 0 0 0 0 0 2 0 0 0 0 1 0 0 2 2 5 25 0 0 0 0 0 0 0 0 24 56 56 103 117 94 107 332 456 772 420 489 310 51 15 0 6 2
0 6 7 17 3 33 0 0 0 0 23 4 1 0 0 3 11 0 0 0 0 0 0 1 10 19 45 54 237 513 443 565 494 516 488 239 243 235 225 10 0 0 1 0
0 0 11 21 19 4 0 0 0 0 0 0 0 0 0 0 0 0 0 2 1 8 3 5 14 42 140 489 654 699 857 869 771 672 130 202 148 8 2 0 1 0 0 0
0 0 10 0 5 1 0 0 1 0 0 0 0 0 0 0 4 23 32 27 38 48 30 11 16 39 378 759 922 913 939 885 363 136 123 109 36 19 1 0 0 0 0 49
2 0 0 0 4 7 7 0 0 0 0 0 1 1 3 14 20 29 39 35 40 40 46 40 27 71 129 372 594 711 627 332 37 0 53 36 0 2 0 0 0 0 0 10
1 0 0 0 2 0 0 0 0 0 1 6 6 6 10 17 22 34 43 41 42 39 33 58 135 151 267 308 370 560 594 88 37 0 0 0 0 0 0 0 0 0 0 0
0 0 0 0 0 0 0 0 1 6 11 3 5 12 20 35 55 59 71 71 79 72 62 46 93 264 254 394 292 378 343 67 45 0 2 0 0 0 0 0 0 0 0 0
CIN
0 0 0 0 0 0 0 0 0 0 0 0 0 0 0 0 0 0 0 -1 -17 -11 -14 -27 -57 -78 -77 -89 -38 -28 -39 0 -50 -67 -70 -67 -62 -60 -114 -168 -66 -70 -26 -94
0 0 0 0 0 0 0 0 0 0 0 0 0 0 -3 -1 -1 0 -6 -9 0 -1 -2 -55 -108 -157 -150 -109 -119 -34 -26 -1 -38 -72 -34 -13 -59 -131 -434 -686 -720 -330 -178 -196
0 0 0 0 0 0 0 0 0 0 0 0 0 -2 0 -28 0 0 0 0 0 0 0 -6 -76 -164 -216 -177 -133 -110 -36 -14 -3 -1 -1 -28 -81 -131 -461 -548 -430 -163 -42 -80
0 0 0 0 0 0 0 0 0 0 0 0 -14 0 0 0 -1 0 -3 -13 0 -1 -11 -12 -16 -58 -148 -189 -166 -149 -129 -90 -49 -1 0 0 -31 -66 -82 -145 -59 -14 -1 0
0 0 0 0 0 0 0 0 0 0 0 -12 0 -69 -6 -53 0 0 -6 -18 -20 -10 -21 -47 -45 -24 -16 -109 -215 -236 -232 -134 -109 -89 -56 -4 -1 -4 -32 -27 0 -1 -1 -3
0 0 0 0 0 0 0 0 0 0 -56 0 0 -15 0 -31 -25 0 -9 -28 -33 -17 -21 -48 -51 -47 -29 -14 -59 -139 -187 -197 -213 -138 -128 -33 -2 0 -2 -1 -2 0 -3 -1
0 0 0 0 0 0 0 -5 0 0 0 0 0 0 -12 -76 -35 -8 -14 -27 -36 -23 -28 -47 -68 -48 -35 -17 -5 -15 -48 -103 -141 -140 -88 -24 0 0 0 -1 -50 -58 -70 -58
0 0 0 0 0 0 0 0 -11 -20 0 0 0 -1 -18 -43 -27 -20 -23 -33 -40 -35 -51 -60 -130 -86 -20 -18 -62 -16 -14 -7 -2 -5 -4 -4 -38 -94 -141 -148 -181 -243 -145 -126
0 0 0 0 0 0 -69 -6 0 -6 -23 0 -2 -7 -43 -46 -44 -38 -35 -26 -39 -32 -50 -65 -120 -120 -69 -66 -95 -68 -27 -17 -11 -69 -81 -66 -131 -173 -183 -209 -201 -146 -251 -272
0 0 0 0 0 0 0 0 0 -2 -1 0 0 0 0 -1 -45 -47 -34 -36 -42 -55 -58 -92 -73 -126 -119 -119 -136 -100 -73 -62 -34 -32 -67 -54 -124 -203 -191 -159 -237 -359 -301 -195
0 -35 -38 0 -67 0 0 -2 -11 -5 0 0 0 -1 -55 -79 -102 -103 -62 -63 -24 0 0 0 0 -161 -141 -155 -154 -110 -88 -21 -20 -41 -25 -43 -84 -141 -116 -152 -262 -412 -323 -265
0 -9 -6 0 0 0 0 0 0 0 0 0 0 0 -83 -80 0 0 0 0 0 0 0 0 0 0 0 -123 -137 -117 -72 -37 -5 -26 -1 -12 -30 -35 -60 -94 -189 -241 -212 -341
0 -73 -115 0 -11 0 0 0 0 0 0 0 0 0 -55 -40 -30 -1 0 0 0 0 0 0 0 0 0 0 0 0 -49 -21 0 0 0 0 -1 0 -31 -69 -150 -250 -243 -62
0 0 0 0 0 0 0 0 0 0 0 0 0 0 0 -1 -1 -1 0 0 0 0 -1 0 0 0 0 0 0 0 -27 -30 -1 0 0 0 -2 -1 -3 -21 -61 -69 -91 -133
0 0 0 0 0 0 0 0 0 0 0 0 0 0 0 -3 -5 -13 0 0 0 0 0 0 0 0 0 0 0 0 0 -27 -1 0 -1 -3 0 0 0 0 -14 -43 -64 -66
0 0 0 0 0 0 0 0 0 0 0 0 0 -1 -8 0 -4 0 0 0 0 -1 0 0 0 0 0 0 0 -22 -25 -19 -4 -5 0 0 -2 0 0 0 -2 0 -11 -4
0 0 0 0 0 0 -1 0 0 0 0 0 0 -1 0 -1 -17 -1 0 0 0 -1 0 -2 -7 -2 0 0 0 0 0 -1 0 0 -2 -2 -1 0 0 0 -1 -6 -1 -5
0 0 0 0 0 0 0 0 0 0 0 0 -1 0 0 0 0 0 -7 -23 -3 -10 -8 0 0 0 -1 0 0 0 0 -2 -8 -16 -24 -1 -3 -1 0 0 0 -3 0 -8
0 0 0 0 0 0 -3 0 0 0 0 0 0 0 0 0 0 -1 -6 -3 -3 -1 0 0 0 0 0 0 0 0 0 0 0 0 -1 -4 0 0 0 0 -1 0 -1 -18
0 0 0 0 0 0 -2 0 0 0 0 0 0 0 0 0 0 0 0 0 0 0 0 0 0 0 0 0 0 0 -1 0 -1 0 0 -1 -11 -8 -1 -1 0 0 -2 0
0 0 0 -1 0 -1 0 0 0 0 -1 -13 -6 0 0 0 0 0 0 0 0 0 0 0 0 -1 -1 -1 0 -1 0 -3 -1 -8 -1 -2 0 -1 -1 -2 0 0 0 0
0 0 0 0 -1 0 0 0 0 0 0 0 0 0 0 0 0 0 0 0 0 0 0 0 0 0 0 0 0 -12 0 -1 0 0 -7 0 0 0 -3 0 0 0 0 0
0 0 -8 0 -1 -1 0 0 0 0 0 0 0 0 0 0 0 0 0 0 0 0 0 0 0 0 -2 -1 -8 -1 0 0 -10 -1 0 0 0 0 0 0 0 0 0 0
0 -1 0 0 0 0 0 -1 0 0 0 0 0 0 0 0 0 0 0 0 0 0 0 0 0 -2 -1 0 -6 0 -9 -11 -12 0 0 0 0 -2 0 0 0 0 0 0
0 0 0 0 0 0 0 0 0 0 0 0 0 0 0 0 0 0 0 0 0 0 0 -1 0 0 -1 -39 0 -1 -2 -18 -22 0 -2 0 0 0 0 0 0 0 0 0
0 0 0 0 0 0 0 0 0 0 0 0 0 0 0 0 0 0 0 0 0 0 0 0 0 0 -28 -3 0 -3 -1 -15 -4 0 -1 0 0 0 0 0 0 0 0 0
Wind_Speed
nan nan nan nan nan nan nan nan nan nan nan nan nan nan nan nan nan 18 23 24 20 19 21 25 19 12 4 9 19 21 19 25 19 21 27 31 33 39 46 39 68 19 21 33
nan nan nan nan nan nan nan nan nan nan nan nan nan nan nan nan 19 14 16 15 18 24 36 27 25 15 11 16 21 19 22 20 23 26 27 28 39 42 41 43 52 52 45 47
nan nan nan nan nan nan nan nan nan nan nan nan nan nan 13 13 21 12 15 13 12 12 16 25 25 26 19 17 18 18 18 23 23 28 32 36 38 40 38 36 47 50 51 50
nan nan nan nan nan nan nan nan nan nan nan nan nan nan 14 16 15 15 16 19 20 22 24 26 29 31 30 20 13 16 18 26 31 33 31 26 27 29 31 40 43 52 51 45
nan nan nan nan nan nan nan nan nan nan nan nan nan nan 10 29 18 20 22 25 24 28 31 32 34 34 30 30 20 24 25 25 31 42 44 23 9 24 28 34 36 37 36 40
nan nan nan nan nan nan nan nan nan nan nan 12 nan nan 20 33 21 24 27 29 29 31 34 37 34 33 30 29 31 32 35 30 28 23 34 31 18 26 31 36 36 38 45 44
nan nan nan nan nan nan nan nan 12 9 7 14 nan nan 36 nan 27 27 29 31 34 36 38 39 38 36 34 35 32 34 34 35 32 32 31 31 32 34 35 34 37 37 38 41
nan nan nan nan nan nan nan nan nan nan 12 14 nan nan 32 nan 28 26 27 26 30 36 41 45 42 38 40 45 39 37 38 34 38 42 46 44 43 39 38 43 41 40 40 45
nan nan nan nan nan nan nan nan nan nan nan 10 nan nan nan 35 31 30 31 30 30 31 36 40 43 43 45 45 43 40 39 43 45 46 43 40 39 35 38 40 39 42 44 46
nan nan nan nan nan nan nan nan nan 8 3 nan nan nan 34 42 41 nan nan 34 36 38 nan 41 45 42 43 47 45 47 47 46 47 48 47 43 42 43 46 44 42 38 40 43
nan nan nan nan nan nan nan nan nan nan nan nan nan 16 39 43 nan nan nan nan nan nan nan nan nan nan 50 50 50 50 47 46 47 44 44 45 47 46 45 45 40 39 42 44
nan nan nan nan nan nan nan nan nan nan nan nan nan nan nan nan nan nan nan nan nan nan nan nan nan nan nan nan 51 51 48 47 45 42 46 47 47 43 45 40 39 41 nan nan
nan nan nan nan nan nan nan nan nan nan nan nan nan nan nan nan nan nan nan nan nan nan nan nan nan nan nan nan nan nan 47 47 44 44 40 42 41 40 40 37 41 nan nan nan
nan nan nan nan nan nan nan nan nan nan nan nan nan nan nan nan nan nan nan nan nan nan nan nan nan nan nan nan nan nan nan 38 38 35 37 34 42 39 37 38 43 46 nan nan
nan nan nan nan nan nan nan nan nan nan nan nan nan nan nan nan nan nan nan nan nan nan nan nan nan nan nan nan nan nan nan 35 36 35 39 35 37 39 40 41 47 51 nan nan
nan nan nan nan nan nan nan nan nan nan nan nan nan nan nan nan nan nan 32 nan nan nan nan nan nan nan nan nan nan nan nan 36 35 35 34 39 39 41 43 47 50 50 52 nan
nan nan nan nan nan nan nan nan nan nan nan nan nan nan nan nan nan nan nan 32 nan nan nan nan nan nan nan nan nan nan 37 35 33 32 30 33 40 40 43 47 49 48 48 48
nan nan nan nan nan nan nan nan nan nan nan nan nan nan nan nan nan nan nan nan nan nan nan nan nan nan nan nan nan 39 36 nan 33 33 33 34 43 42 41 43 43 49 nan 42
nan nan nan nan nan nan nan nan nan nan nan nan nan nan nan nan nan nan nan nan nan nan nan nan nan nan nan nan nan nan nan 39 nan nan 43 41 43 39 35 32 47 47 nan nan
nan nan nan nan nan nan nan nan nan nan nan nan nan nan nan nan nan nan nan nan nan nan nan nan nan nan nan nan nan 43 40 nan 36 41 42 42 46 49 47 nan nan nan nan nan
nan nan nan nan nan nan nan nan nan nan nan nan nan nan nan nan nan nan nan nan nan nan nan nan nan nan nan nan 36 32 31 34 31 29 41 43 41 39 37 nan nan nan nan nan
nan nan nan nan nan nan nan nan nan nan nan nan nan nan nan nan nan nan nan nan nan nan nan nan nan nan 31 34 28 30 31 26 17 22 31 30 28 nan nan nan nan nan nan nan
nan nan nan nan nan nan nan nan nan nan nan nan nan nan nan nan nan nan nan nan nan nan nan nan nan nan 26 29 29 31 25 17 26 29 24 22 nan nan nan nan nan nan nan nan
nan nan nan nan nan nan nan nan nan nan nan nan nan nan nan nan nan nan nan nan nan nan nan nan nan nan 15 24 27 28 23 24 nan nan nan nan nan nan nan nan nan nan nan nan
nan nan nan nan nan nan nan nan nan nan nan nan nan nan nan nan nan nan nan nan nan nan nan nan 19 13 16 26 19 23 19 nan nan nan nan nan nan nan nan nan nan nan nan nan
nan nan nan nan nan nan nan nan nan nan nan nan nan nan nan nan nan nan nan nan nan nan nan nan nan 11 19 18 17 22 22 nan nan nan nan nan nan nan nan nan nan nan nan nan
Wind_Direction
nan nan nan nan nan nan nan nan nan nan nan nan nan nan nan nan nan 245 244 252 236 222 231 233 209 192 252 303 312 309 323 311 303 311 312 310 310 314 316 296 262 249 327 337
nan nan nan nan nan nan nan nan nan nan nan nan nan nan nan nan 245 246 245 249 236 244 242 236 223 235 298 321 312 303 295 304 305 303 302 308 311 308 327 313 312 334 344 351
nan nan nan nan nan nan nan nan nan nan nan nan nan nan 342 269 282 252 235 219 242 230 214 232 237 237 258 306 302 276 285 284 289 294 297 298 312 314 315 315 313 334 343 343
nan nan nan nan nan nan nan nan nan nan nan nan nan nan 231 269 262 249 248 227 233 234 233 233 236 255 268 278 283 251 261 271 278 284 290 306 300 308 318 306 319 322 336 340
nan nan nan nan nan nan nan nan nan nan nan nan nan nan 310 288 265 245 246 243 233 238 236 231 239 252 260 281 270 246 249 272 274 286 289 266 10 288 297 299 302 311 315 319
nan nan nan nan nan nan nan nan nan nan nan 32 nan nan 265 264 268 256 244 243 236 239 242 244 242 252 260 256 263 268 268 276 281 272 294 309 312 300 292 299 306 309 316 316
nan nan nan nan nan nan nan nan 63 4 1 261 nan nan 245 nan 266 254 249 244 237 238 243 245 243 249 251 251 250 269 271 275 274 273 274 284 287 283 290 292 294 297 304 309
nan nan nan nan nan nan nan nan nan nan 196 210 nan nan 270 nan 275 271 263 248 242 242 242 246 243 240 243 252 247 248 254 260 265 277 269 271 263 270 276 278 287 292 296 299
nan nan nan nan nan nan nan nan nan nan nan 43 nan nan nan 284 284 282 274 266 261 256 251 246 245 249 248 250 250 251 244 254 257 264 271 271 276 278 281 283 288 294 298 302
nan nan nan nan nan nan nan nan nan 348 232 nan nan nan 270 280 279 nan nan 270 266 264 nan 255 259 251 250 255 254 248 249 249 258 259 265 265 273 276 281 284 288 292 296 301
nan nan nan nan nan nan nan nan nan nan nan nan nan 260 262 263 nan nan nan nan nan nan nan nan nan nan 255 250 250 250 252 251 251 255 260 266 274 281 285 290 291 291 299 300
nan nan nan nan nan nan nan nan nan nan nan nan nan nan nan nan nan nan nan nan nan nan nan nan nan nan nan nan 263 264 265 266 268 267 268 274 281 285 288 289 290 296 nan nan
nan nan nan nan nan nan nan nan nan nan nan nan nan nan nan nan nan nan nan nan nan nan nan nan nan nan nan nan nan nan 262 263 265 270 274 279 281 286 286 289 294 nan nan nan
nan nan nan nan nan nan nan nan nan nan nan nan nan nan nan nan nan nan nan nan nan nan nan nan nan nan nan nan nan nan nan 269 275 272 273 276 283 285 288 295 300 300 nan nan
nan nan nan nan nan nan nan nan nan nan nan nan nan nan nan nan nan nan nan nan nan nan nan nan nan nan nan nan nan nan nan 271 274 276 280 283 291 296 297 299 302 304 nan nan
nan nan nan nan nan nan nan nan nan nan nan nan nan nan nan nan nan nan 301 nan nan nan nan nan nan nan nan nan nan nan nan 273 274 275 280 285 289 297 295 296 299 301 301 nan
nan nan nan nan nan nan nan nan nan nan nan nan nan nan nan nan nan nan nan 297 nan nan nan nan nan nan nan nan nan nan 275 278 278 278 274 274 279 287 293 298 297 297 295 289
nan nan nan nan nan nan nan nan nan nan nan nan nan nan nan nan nan nan nan nan nan nan nan nan nan nan nan nan nan 281 281 nan 281 281 277 273 284 291 297 298 297 292 nan 286
nan nan nan nan nan nan nan nan nan nan nan nan nan nan nan nan nan nan nan nan nan nan nan nan nan nan nan nan nan nan nan 282 nan nan 280 279 282 290 294 293 299 279 nan nan
nan nan nan nan nan nan nan nan nan nan nan nan nan nan nan nan nan nan nan nan nan nan nan nan nan nan nan nan nan 301 299 nan 295 282 275 276 276 277 269 nan nan nan nan nan
nan nan nan nan nan nan nan nan nan nan nan nan nan nan nan nan nan nan nan nan nan nan nan nan nan nan nan nan 295 287 290 285 275 276 282 280 279 278 273 nan nan nan nan nan
nan nan nan nan nan nan nan nan nan nan nan nan nan nan nan nan nan nan nan nan nan nan nan nan nan nan 297 293 294 297 286 289 290 286 292 289 289 nan nan nan nan nan nan nan
nan nan nan nan nan nan nan nan nan nan nan nan nan nan nan nan nan nan nan nan nan nan nan nan nan nan 295 286 287 287 292 288 287 290 296 286 nan nan nan nan nan nan nan nan
nan nan nan nan nan nan nan nan nan nan nan nan nan nan nan nan nan nan nan nan nan nan nan nan nan nan 297 291 301 295 299 303 nan nan nan nan nan nan nan nan nan nan nan nan
nan nan nan nan nan nan nan nan nan nan nan nan nan nan nan nan nan nan nan nan nan nan nan nan 302 311 293 298 292 287 297 nan nan nan nan nan nan nan nan nan nan nan nan nan
nan nan nan nan nan nan nan nan nan nan nan nan nan nan nan nan nan nan nan nan nan nan nan nan nan 283 311 306 300 295 309 nan nan nan nan nan nan nan nan nan nan nan nan nan